W9ESR Weather Reports


time (UTC)temp
F
wind
direction
speed
knots
gust
knots
rain 1hr
in
rain 24hr
in
rain mn
in
humidity
%
barometer
mb
20260505011745 63 1 25.2 28.7 0.00 0.00 0.00 37
20260505011242 63 15 17.4 23.5 0.00 0.00 0.00 37
20260505010738 64 16 15.6 22.6 0.00 0.00 0.00 37
20260505010234 65 8 19.1 26.9 0.00 0.00 0.00 36
20260505005731 66 6 23.5 29.5 0.00 0.00 0.00 35
20260505005228 67 3 24.3 28.7 0.00 0.00 0.00 34
20260505004725 68 17 15.6 20.9 0.00 0.00 0.00 34
20260505004221 68 25 18.2 26.1 0.00 0.00 0.00 33
20260505003719 68 6 20.0 23.5 0.00 0.00 0.00 33
20260505003217 69 15 21.7 26.1 0.00 0.00 0.00 33
20260505002712 69 4 19.1 25.2 0.00 0.00 0.00 33
20260505002210 69 1 14.8 26.1 0.00 0.00 0.00 33
20260505001708 69 3 17.4 25.2 0.00 0.00 0.00 33
20260505001205 69 4 16.5 19.1 0.00 0.00 0.00 33
20260505000702 69 348 17.4 21.7 0.00 0.00 0.00 32
20260505000200 70 4 20.9 26.9 0.00 0.00 0.00 32
20260504235656 70 10 21.7 27.8 0.00 0.00 0.00 31
20260504235152 71 16 19.1 22.6 0.00 0.00 0.00 31
20260504234650 71 1 19.1 23.5 0.00 0.00 0.00 31
20260504234147 71 7 16.5 20.9 0.00 0.00 0.00 32
20260504233643 71 359 13.0 20.9 0.00 0.00 0.00 32
20260504233139 71 11 20.9 22.6 0.00 0.00 0.00 32
20260504232637 71 5 23.5 28.7 0.00 0.00 0.00 31
20260504232133 71 8 15.6 23.5 0.00 0.00 0.00 31
20260504231630 72 358 16.5 21.7 0.00 0.00 0.00 31
20260504231126 72 352 17.4 23.5 0.00 0.00 0.00 30
20260504230622 73 355 18.2 21.7 0.00 0.00 0.00 30
20260504230122 73 7 19.1 25.2 0.00 0.00 0.00 30
20260504225619 73 9 15.6 23.5 0.00 0.00 0.00 30
20260504225115 74 5 16.5 26.1 0.00 0.00 0.00 29
20260504224612 74 8 19.1 22.6 0.00 0.00 0.00 29
20260504224109 74 14 15.6 23.5 0.00 0.00 0.00 29
20260504223606 75 3 21.7 26.9 0.00 0.00 0.00 28
20260504223101 75 11 21.7 25.2 0.00 0.00 0.00 28
20260504222559 76 5 19.1 22.6 0.00 0.00 0.00 28
20260504222056 76 359 11.3 21.7 0.00 0.00 0.00 28
20260504221553 77 357 16.5 23.5 0.00 0.00 0.00 28
20260504221050 76 3 13.9 21.7 0.00 0.00 0.00 29
20260504220546 76 16 17.4 23.5 0.00 0.00 0.00 29
20260504220044 76 1 16.5 21.7 0.00 0.00 0.00 29
20260504215540 76 2 13.0 20.0 0.00 0.00 0.00 30
20260504215037 76 358 13.0 19.1 0.00 0.00 0.00 31
20260504214533 78 2 17.4 20.9 0.00 0.00 0.00 30
20260504214030 78 16 14.8 19.1 0.00 0.00 0.00 30
20260504213526 78 10 16.5 21.7 0.00 0.00 0.00 30
20260504213024 78 16 13.9 26.1 0.00 0.00 0.00 30
20260504212519 79 356 14.8 19.1 0.00 0.00 0.00 30
20260504212017 78 4 7.8 13.9 0.00 0.00 0.00 32
20260504211514 78 353 9.6 13.9 0.00 0.00 0.00 31
20260504211011 78 4 14.8 23.5 0.00 0.00 0.00 31
20260504210508 78 354 13.9 22.6 0.00 0.00 0.00 32
20260504210004 78 19 12.2 14.8 0.00 0.00 0.00 33
20260504205502 78 358 13.9 19.1 0.00 0.00 0.00 33
20260504205000 78 319 13.9 19.1 0.00 0.00 0.00 33
20260504204458 78 349 7.8 19.1 0.00 0.00 0.00 33
20260504203957 79 352 12.2 14.8 0.00 0.00 0.00 33
20260504203454 80 351 9.6 14.8 0.00 0.00 0.00 30
20260504202950 80 10 10.4 14.8 0.00 0.00 0.00 30
20260504202447 80 320 6.1 13.0 0.00 0.00 0.00 31
20260504201944 80 5 14.8 18.2 0.00 0.00 0.00 30
20260504201441 80 315 13.0 18.2 0.00 0.00 0.00 30
20260504200939 80 356 12.2 15.6 0.00 0.00 0.00 28
20260504200435 80 15 11.3 13.0 0.00 0.00 0.00 28
20260504195931 80 332 7.0 13.0 0.00 0.00 0.00 29
20260504195427 82 311 6.1 12.2 0.00 0.00 0.00 28
20260504194924 81 270 5.2 9.6 0.00 0.00 0.00 28
20260504194420 81 5 13.9 16.5 0.00 0.00 0.00 28
20260504193916 81 330 11.3 18.2 0.00 0.00 0.00 27
20260504193414 81 350 5.2 9.6 0.00 0.00 0.00 28
20260504192912 81 344 13.0 19.1 0.00 0.00 0.00 27
20260504192409 82 320 5.2 11.3 0.00 0.00 0.00 28
20260504191908 81 282 7.8 13.0 0.00 0.00 0.00 28
20260504191405 81 318 7.8 11.3 0.00 0.00 0.00 28
20260504190901 82 321 9.6 13.9 0.00 0.00 0.00 27
20260504190357 81 293 7.8 9.6 0.00 0.00 0.00 28
20260504185854 82 356 5.2 12.2 0.00 0.00 0.00 28
20260504185351 82 311 10.4 14.8 0.00 0.00 0.00 28
20260504184847 81 328 6.1 9.6 0.00 0.00 0.00 27
20260504184343 81 323 7.8 9.6 0.00 0.00 0.00 27
20260504183839 81 278 4.3 6.1 0.00 0.00 0.00 25
20260504183336 81 328 4.3 12.2 0.00 0.00 0.00 26
20260504182834 80 280 11.3 15.6 0.00 0.00 0.00 26
20260504182331 81 274 8.7 15.6 0.00 0.00 0.00 25
20260504181827 81 308 11.3 13.9 0.00 0.00 0.00 25
20260504181325 81 334 10.4 12.2 0.00 0.00 0.00 26
20260504180824 80 336 10.4 14.8 0.00 0.00 0.00 26
20260504180322 80 266 8.7 9.6 0.00 0.00 0.00 27
20260504175820 80 294 7.8 12.2 0.00 0.00 0.00 26
20260504175316 80 310 6.1 15.6 0.00 0.00 0.00 25
20260504174815 80 9 6.1 13.0 0.00 0.00 0.00 27
20260504174312 80 308 13.0 13.9 0.00 0.00 0.00 28
20260504173808 79 277 5.2 13.0 0.00 0.00 0.00 29
20260504173305 79 312 7.0 13.9 0.00 0.00 0.00 27
20260504172802 79 325 7.8 13.9 0.00 0.00 0.00 28
20260504172259 79 345 7.0 11.3 0.00 0.00 0.00 29
20260504171754 79 283 3.5 9.6 0.00 0.00 0.00 31
20260504171252 78 341 4.3 6.1 0.00 0.00 0.00 32
20260504170749 78 293 7.8 8.7 0.00 0.00 0.00 33
20260504170246 78 354 2.6 15.6 0.00 0.00 0.00 33
20260504160204 72 273 5.2 9.6 0.00 0.00 0.00 43
20260504151132 67 251 7.0 9.6 0.00 0.00 0.00 47
20260504150630 67 296 4.3 7.0 0.00 0.00 0.00 47
20260504150126 67 197 1.7 5.2 0.00 0.00 0.00 48
20260504141055 63 309 1.7 3.5 0.00 0.00 0.00 52
20260504140551 63 170 1.7 6.1 0.00 0.00 0.00 52
20260504130516 56 354 2.6 2.6 0.00 0.00 0.00 64
20260504110403 55 192 0.9 1.7 0.00 0.00 0.00 56
20260504100320 55 181 2.6 5.2 0.00 0.00 0.00 55
20260504081714 57 164 6.1 7.0 0.00 0.00 0.00 53
20260504081210 56 158 5.2 6.1 0.00 0.00 0.00 54
20260504080707 55 170 3.5 3.5 0.00 0.00 0.00 55
20260504080203 55 165 3.5 3.5 0.00 0.00 0.00 55
20260504070131 58 162 7.0 7.8 0.00 0.00 0.00 51
20260504050520 60 142 3.5 3.5 0.00 0.00 0.00 46
20260504050017 61 140 4.3 5.2 0.00 0.00 0.00 45
20260504045513 61 131 5.2 5.2 0.00 0.00 0.00 44
20260504045009 62 136 5.2 6.1 0.00 0.00 0.00 44
20260504044506 62 137 3.5 3.5 0.00 0.00 0.00 44
20260504044003 62 132 3.5 3.5 0.00 0.00 0.00 44
20260504043500 61 145 2.6 3.5 0.00 0.00 0.00 45
20260504042958 61 157 3.5 3.5 0.00 0.00 0.00 45
20260504042454 62 150 2.6 2.6 0.00 0.00 0.00 44
20260504041951 62 146 3.5 3.5 0.00 0.00 0.00 44
20260504041447 62 152 3.5 3.5 0.00 0.00 0.00 44
20260504040943 61 164 3.5 3.5 0.00 0.00 0.00 47
20260504040441 61 165 3.5 3.5 0.00 0.00 0.00 46
20260504035937 61 162 3.5 3.5 0.00 0.00 0.00 46
20260504035435 62 160 3.5 5.2 0.00 0.00 0.00 46
20260504034931 61 166 4.3 5.2 0.00 0.00 0.00 47
20260504034429 61 169 3.5 3.5 0.00 0.00 0.00 46
20260504033925 62 182 2.6 5.2 0.00 0.00 0.00 44
20260504033423 63 170 3.5 3.5 0.00 0.00 0.00 43
20260504032920 64 169 5.2 5.2 0.00 0.00 0.00 42
20260504032417 64 166 3.5 3.5 0.00 0.00 0.00 41
20260504031913 62 166 3.5 3.5 0.00 0.00 0.00 43
20260504031411 63 163 5.2 5.2 0.00 0.00 0.00 43
20260504030907 65 152 3.5 6.1 0.00 0.00 0.00 40
20260504030405 65 136 3.5 5.2 0.00 0.00 0.00 39
20260504025900 65 129 3.5 3.5 0.00 0.00 0.00 39
20260504025358 63 159 5.2 6.1 0.00 0.00 0.00 43
20260504024854 66 144 3.5 3.5 0.00 0.00 0.00 38
20260504024351 65 147 3.5 3.5 0.00 0.00 0.00 38
20260504023848 65 155 3.5 3.5 0.00 0.00 0.00 40
20260504023344 66 148 1.7 2.6 0.00 0.00 0.00 38
20260504022840 67 126 2.6 3.5 0.00 0.00 0.00 37
20260504022337 66 142 2.6 2.6 0.00 0.00 0.00 38
20260504021833 66 142 2.6 2.6 0.00 0.00 0.00 38
20260504021331 66 124 1.7 2.6 0.00 0.00 0.00 38
20260504020828 66 92 1.7 2.6 0.00 0.00 0.00 39
20260504020325 67 91 0.9 0.9 0.00 0.00 0.00 38
20260504015820 67 91 0.9 1.7 0.00 0.00 0.00 37
20260504015317 68 92 0.9 0.9 0.00 0.00 0.00 37
20260504014813 68 92 1.7 1.7 0.00 0.00 0.00 36
20260504014309 68 72 0.9 1.7 0.00 0.00 0.00 37
20260504013807 68 60 0.0 0.9 0.00 0.00 0.00 36
20260504013305 69 61 1.7 2.6 0.00 0.00 0.00 36
20260504012801 69 59 0.9 2.6 0.00 0.00 0.00 36
20260504012259 69 57 2.6 3.5 0.00 0.00 0.00 35